Location: Mentone
(34.5413°N, 85.5351°W)
Time: 12:32:43
(UTC-05:00)

Uosat F - Visible Passes

Search period start: 16 August 2017 00:00
Search period end: 26 August 2017 00:00
Orbit: 750 x 762 km, 98.8° (Epoch: 15 August)

Date Brightness Start Highest point End Pass type
(mag) Time Alt. Az. Time Alt. Az. Time Alt. Az.
16 Aug 14.2 20:25:02 10° WSW 20:26:50 12° W 20:28:38 10° WNW visible
19 Aug 13.8 20:03:22 10° SW 20:06:57 20° W 20:10:35 10° NW visible
21 Aug 14.1 20:25:03 10° WSW 20:26:56 12° W 20:28:49 10° WNW visible
22 Aug 13.1 19:42:43 10° SSW 19:47:09 32° W 19:51:36 10° NW visible
24 Aug 13.8 20:03:26 10° SW 20:07:03 20° W 20:10:42 10° NW visible
